軌道要素
Epoch 2017 Jan. 7.0 TT = JDT 2457760.5
T 2016 Dec. 31.26671 TT MPCW
q 0.5325589 (2000.0) P Q
n 0.18718687 Peri. 326.26198 +0.56817763 -0.81956406
a 3.0265821 Node 89.00842 +0.77042681 +0.49814640
e 0.8240395 Incl. 4.24942 +0.28916553 +0.28313410
P 5.27
From 1163 observations 2016 Nov. 6-2017 Mar. 8, mean residual 0".7.
Nongravitational parameters A1 = -1.29, A2 = -0.6735.
|